Theta_e
292 290 290 289 287 287 286 286 286 287 287 286 286 286 286 286 285 286 286 287 287 288 289 290 291 291 291 291 291 291 291 292
291 289 288 287 285 285 285 284 284 285 285 284 284 284 284 284 284 284 285 285 286 287 288 288 288 288 288 288 288 288 289 290
290 288 286 285 284 284 283 283 283 284 284 283 283 283 282 282 282 283 283 284 284 285 286 286 286 286 285 284 285 285 286 287
288 287 286 285 284 282 281 281 282 282 282 281 281 281 280 281 281 282 282 282 283 284 284 285 284 284 284 283 283 284 285 286
289 287 285 284 282 280 280 281 281 281 280 279 279 280 279 280 280 281 281 281 282 282 283 284 283 283 282 282 282 283 283 284
288 286 285 283 282 280 279 279 280 279 279 279 279 279 279 279 279 280 280 280 281 281 281 282 283 283 281 281 281 280 280 281
289 288 285 283 281 280 279 279 279 278 277 278 278 278 278 278 279 279 279 279 279 279 279 279 282 283 283 281 280 280 280 279
289 288 286 283 281 278 278 278 277 277 277 277 278 277 278 278 278 278 277 278 278 278 278 278 280 282 282 280 279 278 278 278
292 290 286 282 280 278 278 277 277 277 276 276 277 276 277 277 276 276 276 276 277 277 278 278 279 281 281 279 277 277 276 276
292 286 279 278 277 277 277 277 276 275 275 276 276 276 276 275 275 275 276 276 276 277 277 277 277 279 279 278 276 275 275 275
280 278 277 276 277 276 275 275 274 274 275 275 275 275 275 275 275 275 275 276 276 276 276 277 274 277 278 277 275 274 273 274
276 276 275 276 276 275 274 274 274 274 273 273 273 273 274 273 274 274 274 274 275 275 275 275 274 274 276 276 274 274 273 272
274 273 274 276 275 274 272 272 271 271 271 271 271 273 273 272 273 273 273 272 272 273 273 273 273 273 274 274 275 275 272 271
272 272 273 274 274 271 269 269 269 269 268 269 270 271 272 271 271 271 271 270 270 270 269 269 270 270 272 272 273 274 273 272
271 270 269 271 271 269 268 268 266 267 268 269 270 269 270 271 271 270 269 268 268 267 266 267 267 268 269 271 270 272 272 271
269 268 266 266 266 266 266 267 268 268 268 269 269 269 268 269 268 269 269 269 267 266 266 263 262 266 271 272 270 270 272 261
267 265 264 263 263 263 264 266 267 267 267 267 267 267 267 266 266 268 269 270 270 271 270 267 270 271 272 271 272 273 270 252
265 264 263 262 263 263 263 264 265 265 265 265 266 265 264 264 263 262 264 267 268 268 268 269 269 270 270 270 271 267 263 248
264 264 263 263 261 261 262 262 261 263 263 263 264 263 262 262 262 261 260 258 258 263 264 266 267 267 268 269 262 252 252 247
264 263 263 261 260 260 260 260 260 261 262 262 261 261 261 260 259 258 257 256 254 254 258 260 263 265 266 266 250 247 246 247
Wind_Speed
11 10 7 7 6 6 5 5 4 5 5 5 5 5 5 5 6 5 5 6 6 6 6 7 9 9 9 7 8 8 6 6
9 9 8 7 7 6 6 5 4 4 5 5 5 5 5 5 5 5 5 6 6 6 6 8 9 9 8 7 8 8 7 6
12 11 9 8 7 7 6 6 5 4 5 5 5 5 5 5 5 5 5 5 5 6 6 8 9 9 9 8 8 8 8 7
10 12 12 10 9 7 7 6 5 5 5 5 5 5 5 5 5 5 5 5 5 5 6 7 8 9 8 8 7 7 7 8
11 12 12 11 11 9 7 7 6 5 5 5 4 5 4 5 5 5 5 5 5 5 5 7 8 8 8 7 6 6 7 8
13 13 13 12 11 10 9 7 6 6 5 5 4 4 4 4 5 5 5 5 5 5 6 5 7 7 8 7 6 6 6 7
13 12 13 14 13 11 10 9 7 6 6 5 4 4 4 4 4 5 5 5 5 5 5 5 6 12 14 9 6 6 6 7
17 18 15 16 16 15 13 10 9 9 7 6 5 5 4 4 5 5 5 5 5 5 5 4 4 11 13 12 5 6 7 8
14 13 12 12 13 13 13 11 10 9 8 6 6 5 5 5 5 4 3 4 4 4 4 3 4 10 10 11 6 5 7 8
11 8 10 14 14 14 12 11 10 10 8 7 6 6 5 6 5 4 3 3 3 3 3 3 4 10 10 9 6 6 8 8
7 9 13 13 14 14 12 12 10 10 9 7 6 6 6 5 5 4 2 4 2 3 4 6 5 9 9 10 5 6 5 6
7 9 10 10 11 11 12 12 11 10 8 6 5 5 6 5 3 4 4 3 2 4 3 6 6 7 9 10 6 5 6 7
9 8 8 9 10 10 9 8 7 7 9 7 5 4 5 5 5 4 4 3 3 3 3 4 5 7 8 9 12 12 6 8
9 9 6 6 10 11 7 8 8 5 1 5 6 5 3 5 5 4 3 3 2 2 2 3 4 3 9 9 12 13 8 7
9 8 6 5 9 11 10 8 6 6 4 2 5 6 4 3 4 4 3 3 2 1 1 1 3 3 4 5 3 9 8 8
9 8 8 8 8 7 7 8 8 7 5 3 2 5 5 4 3 3 3 3 2 2 2 2 2 4 9 8 6 6 8 5
9 11 9 9 8 6 4 5 8 7 5 3 2 2 3 2 2 3 1 2 3 4 2 2 7 10 11 12 15 14 14 5
12 11 10 10 9 6 4 4 4 6 6 3 2 2 2 1 1 0 3 4 3 4 6 8 9 10 11 12 11 11 10 2
11 10 10 10 8 8 6 4 3 4 5 4 3 2 1 1 1 1 2 2 2 4 8 8 9 11 11 13 8 5 4 1
9 8 8 9 8 7 6 6 5 5 4 3 2 1 2 1 1 2 2 2 3 2 4 4 12 12 11 9 3 3 3 3
Wind_Direction
161 158 154 154 146 124 122 126 121 102 103 95 84 75 77 68 57 45 33 30 30 24 23 22 36 36 33 37 22 29 21 25
158 157 154 148 152 148 145 147 138 125 112 103 89 80 78 73 60 45 40 32 31 26 30 32 50 37 34 26 23 24 19 12
169 161 161 163 163 164 160 157 161 142 119 104 93 86 82 75 64 53 49 36 35 29 34 49 50 41 36 26 16 14 12 10
167 176 175 179 171 164 164 160 162 144 126 111 105 98 94 86 74 61 57 45 36 37 38 64 58 45 33 24 10 356 12 26
182 189 186 178 171 167 158 160 161 143 125 119 116 107 104 97 86 77 69 58 46 46 43 79 64 51 35 20 8 19 27 27
191 194 191 182 172 165 158 153 152 138 130 132 123 113 106 95 89 84 69 61 63 54 44 61 61 44 35 18 24 24 20 24
212 201 193 181 174 162 157 155 145 138 138 136 135 127 117 109 101 91 78 71 70 58 60 47 67 47 37 36 23 20 23 10
207 204 195 187 172 169 155 146 146 146 149 150 148 140 126 117 101 88 82 82 76 69 71 58 60 39 39 33 27 17 13 5
217 212 192 171 161 146 148 149 150 147 147 148 147 144 135 117 103 87 82 88 86 73 74 76 67 41 31 42 28 27 10 357
212 172 144 154 149 140 141 143 146 150 149 151 154 148 138 127 119 110 98 88 85 87 81 67 64 36 18 43 21 14 0 354
135 131 140 147 141 140 146 149 155 150 147 146 148 144 131 126 124 108 120 113 119 108 74 84 70 28 13 33 6 354 356 345
103 127 130 131 133 141 149 156 143 131 127 129 131 141 132 120 120 107 104 80 72 97 77 101 74 23 7 19 1 343 353 339
107 109 114 128 130 134 129 114 109 130 135 137 138 151 133 135 127 110 105 112 105 98 87 57 40 15 353 7 352 338 342 340
124 117 104 118 132 124 119 116 114 103 93 138 139 131 146 136 122 113 110 104 100 75 70 24 5 355 343 334 342 332 330 324
122 119 86 74 108 119 122 118 118 125 147 196 144 132 124 111 113 126 118 118 103 70 36 315 324 324 304 286 317 308 320 356
135 127 111 99 90 86 105 128 134 130 143 182 178 130 132 118 122 121 120 162 185 202 195 181 268 280 299 323 318 296 325 62
131 127 125 114 108 105 113 145 137 139 156 168 179 135 124 131 120 28 345 265 282 301 268 204 299 308 311 322 313 338 348 50
148 139 135 131 132 131 133 141 138 131 145 152 182 165 146 119 112 325 338 337 335 335 334 323 304 314 314 314 322 6 7 71
139 142 143 137 133 130 122 116 113 143 130 149 163 157 143 170 200 242 241 267 284 329 324 316 320 306 305 301 33 355 349 199
125 125 127 128 130 139 139 163 168 174 166 150 146 172 193 198 235 227 255 261 273 326 325 314 309 306 306 324 129 238 262 259